,,,PA_Meas_PMT16A,,PR_Meas_QMR101_102,,RH_Meas_QMH101,,SR_Meas_QMS101,,TA_Meas_QMH101,,GenWind,,GenWind,
date,time,status,PA,status,PR,status,RH,status,SR,status,TA,status,DirAvg,status,SpdAvg,
2009-07-27, 00:00:04,VALID,1002.13,VALID,0,VALID,94.1328,VALID,0.100563,VALID,23.7973,VALID,29,VALID,0,
2009-07-27, 00:01:04,VALID,1002.13,VALID,0,VALID,94.148,VALID,0,VALID,23.838,VALID,29,VALID,0,
2009-07-27, 00:02:04,VALID,1002.09,VALID,0,VALID,94.1633,VALID,0,VALID,23.838,VALID,29,VALID,0,
2009-07-27, 00:03:04,VALID,1002.12,VALID,0,VALID,94.209,VALID,0.100563,VALID,23.8362,VALID,29,VALID,0,
2009-07-27, 00:04:04,VALID,1002.11,VALID,0,VALID,94.2243,VALID,0,VALID,23.8575,VALID,29,VALID,0,
2009-07-27, 00:05:04,VALID,1002.09,VALID,0,VALID,94.2624,VALID,0,VALID,23.8575,VALID,29,VALID,0,
2009-07-27, 00:06:04,VALID,1002.07,VALID,0,VALID,94.3082,VALID,0,VALID,23.8769,VALID,29,VALID,0.216797,
2009-07-27, 00:07:04,VALID,1002.06,VALID,0,VALID,94.3311,VALID,0,VALID,23.8964,VALID,29,VALID,0.384375,
2009-07-27, 00:08:04,VALID,1002.09,VALID,0,VALID,94.3235,VALID,0,VALID,23.8769,VALID,29,VALID,0.245703,
2009-07-27, 00:09:04,VALID,1002.03,VALID,0,VALID,94.3311,VALID,0,VALID,23.8946,VALID,29,VALID,0,
2009-07-27, 00:10:04,VALID,1002.04,VALID,0,VALID,94.354,VALID,0.100563,VALID,23.9159,VALID,29,VALID,0.2,
2009-07-27, 00:11:04,VALID,1002.04,VALID,0,VALID,94.3692,VALID,0,VALID,23.9548,VALID,29,VALID,0.176563,
2009-07-27, 00:12:04,VALID,1002.05,VALID,0,VALID,94.3921,VALID,0,VALID,23.9548,VALID,29,VALID,0.00195313,
2009-07-27, 00:13:04,VALID,1002.05,VALID,0,VALID,94.415,VALID,0,VALID,23.9742,VALID,29,VALID,0.0128906,
2009-07-27, 00:14:04,VALID,1002.04,VALID,0,VALID,94.4227,VALID,0.100563,VALID,23.9937,VALID,29,VALID,0,
2009-07-27, 00:15:04,VALID,1002.06,VALID,0,VALID,94.4455,VALID,0.100563,VALID,23.9937,VALID,29,VALID,0.191406,
2009-07-27, 00:16:04,VALID,1002.05,VALID,0,VALID,94.4532,VALID,0.100563,VALID,24.0132,VALID,29,VALID,0.205859,
2009-07-27, 00:17:04,VALID,1002.03,VALID,0,VALID,94.4684,VALID,0,VALID,24.0114,VALID,29,VALID,0.121484,
2009-07-27, 00:18:04,VALID,1002.01,VALID,0,VALID,94.4379,VALID,0,VALID,24.0521,VALID,29,VALID,0.165625,
2009-07-27, 00:19:04,VALID,1002.04,VALID,0,VALID,94.4379,VALID,0,VALID,24.0521,VALID,29,VALID,0.00195313,
2009-07-27, 00:20:04,VALID,1002.01,VALID,0,VALID,94.4227,VALID,0.100563,VALID,24.0716,VALID,29,VALID,0,
2009-07-27, 00:21:04,VALID,1002.03,VALID,0,VALID,94.3921,VALID,0.100563,VALID,24.0716,VALID,29,VALID,0,
2009-07-27, 00:22:04,VALID,1002.04,VALID,0,VALID,94.3998,VALID,0.100563,VALID,24.1087,VALID,29,VALID,0,
2009-07-27, 00:23:04,VALID,1002.03,VALID,0,VALID,94.3616,VALID,0,VALID,24.13,VALID,29,VALID,0,
2009-07-27, 00:24:04,VALID,1002.04,VALID,0,VALID,94.3769,VALID,0,VALID,24.1689,VALID,29,VALID,0,
2009-07-27, 00:25:04,VALID,1002.03,VALID,0,VALID,94.3921,VALID,0,VALID,24.2273,VALID,29,VALID,0,
2009-07-27, 00:26:04,VALID,1002.03,VALID,0,VALID,94.3769,VALID,0,VALID,24.2468,VALID,29,VALID,0,
2009-07-27, 00:27:04,VALID,1002.05,VALID,0,VALID,94.3311,VALID,0.100563,VALID,24.2644,VALID,29,VALID,0,
2009-07-27, 00:28:04,VALID,1002.05,VALID,0,VALID,94.3311,VALID,0,VALID,24.3265,VALID,29,VALID,0,
2009-07-27, 00:29:04,VALID,1002.06,VALID,0,VALID,94.2701,VALID,0,VALID,24.3459,VALID,29,VALID,0,
2009-07-27, 00:30:04,VALID,1002.09,VALID,0,VALID,94.2472,VALID,0,VALID,24.3636,VALID,29,VALID,0,
2009-07-27, 00:31:04,VALID,1002.11,VALID,0,VALID,94.2167,VALID,0,VALID,24.4025,VALID,29,VALID,0,
2009-07-27, 00:32:04,VALID,1002.09,VALID,0,VALID,94.1938,VALID,0,VALID,24.4822,VALID,29,VALID,0,
2009-07-27, 00:33:04,VALID,1002.13,VALID,0,VALID,94.1785,VALID,0,VALID,24.5212,VALID,22,VALID,0.512109,
2009-07-27, 00:34:04,VALID,1002.15,VALID,0,VALID,94.087,VALID,0,VALID,24.5388,VALID,14,VALID,0.394531,
2009-07-27, 00:35:04,VALID,1002.14,VALID,0,VALID,94.0183,VALID,0,VALID,24.5972,VALID,14,VALID,0.0886719,
2009-07-27, 00:36:04,VALID,1002.15,VALID,0,VALID,93.9344,VALID,0,VALID,24.6574,VALID,14,VALID,0,
2009-07-27, 00:37:04,VALID,1002.11,VALID,0,VALID,93.8123,VALID,0,VALID,24.6964,VALID,14,VALID,0.194531,
2009-07-27, 00:38:04,VALID,1002.14,VALID,0,VALID,93.5682,VALID,0,VALID,24.7159,VALID,14,VALID,0.582812,
2009-07-27, 00:39:04,VALID,1002.13,VALID,0,VALID,93.5301,VALID,0,VALID,24.7743,VALID,332,VALID,0.265234,
2009-07-27, 00:40:04,VALID,1002.13,VALID,0,VALID,93.3775,VALID,0,VALID,24.8113,VALID,332,VALID,0,
2009-07-27, 00:41:04,VALID,1002.1,VALID,0,VALID,93.2249,VALID,0,VALID,24.8716,VALID,332,VALID,0.294922,
2009-07-27, 00:42:04,VALID,1002.11,VALID,0,VALID,93.0876,VALID,0,VALID,24.8911,VALID,332,VALID,0.197656,
2009-07-27, 00:43:04,VALID,1002.11,VALID,0,VALID,92.9961,VALID,0,VALID,24.9087,VALID,332,VALID,0,
2009-07-27, 00:44:04,VALID,1002.08,VALID,0,VALID,93.0037,VALID,0,VALID,24.9476,VALID,332,VALID,0,
2009-07-27, 00:45:04,VALID,1002.11,VALID,0,VALID,92.9732,VALID,0.100563,VALID,25.006,VALID,311,VALID,0.523438,
2009-07-27, 00:46:04,VALID,1002.07,VALID,0,VALID,92.9426,VALID,0,VALID,25.1229,VALID,314,VALID,0.232812,
2009-07-27, 00:47:04,VALID,1002.08,VALID,0,VALID,92.3552,VALID,0,VALID,25.1813,VALID,354,VALID,0.296094,
2009-07-27, 00:48:04,VALID,1002.11,VALID,0,VALID,91.9662,VALID,0,VALID,25.2397,VALID,47,VALID,0.440625,
2009-07-27, 00:49:04,VALID,1002.1,VALID,0,VALID,91.9509,VALID,0,VALID,25.3565,VALID,308,VALID,0.8375,
2009-07-27, 00:50:04,VALID,1002.06,VALID,0,VALID,91.6152,VALID,0.100563,VALID,25.4909,VALID,333,VALID,1.00469,
2009-07-27, 00:51:04,VALID,1002.05,VALID,0,VALID,90.8295,VALID,0,VALID,25.6876,VALID,304,VALID,0.371875,
2009-07-27, 00:52:04,VALID,1002.03,VALID,0,VALID,90.1352,VALID,0,VALID,25.8434,VALID,322,VALID,0.199609,
2009-07-27, 00:53:04,VALID,1002.02,VALID,0,VALID,89.7233,VALID,0.100563,VALID,25.8998,VALID,319,VALID,0.0363281,
2009-07-27, 00:54:04,VALID,1001.98,VALID,0,VALID,89.3952,VALID,0,VALID,25.9817,VALID,329,VALID,0.598047,
2009-07-27, 00:55:04,VALID,1001.97,VALID,0,VALID,89.0595,VALID,0.100563,VALID,26.0576,VALID,315,VALID,0.724219,
2009-07-27, 00:56:04,VALID,1001.94,VALID,0,VALID,88.5026,VALID,0,VALID,26.194,VALID,334,VALID,0.724609,
2009-07-27, 00:57:04,VALID,1001.95,VALID,0,VALID,87.8694,VALID,0,VALID,26.2913,VALID,306,VALID,0.571484,
2009-07-27, 00:58:04,VALID,1001.94,VALID,0,VALID,87.4575,VALID,0,VALID,26.3693,VALID,198,VALID,1.08633,
2009-07-27, 00:59:04,VALID,1001.94,VALID,0,VALID,87.1905,VALID,0,VALID,26.4082,VALID,12,VALID,0.346484,
2009-07-27, 01:00:04,VALID,1001.93,VALID,0,VALID,86.9464,VALID,0,VALID,26.4297,VALID,316,VALID,0.645703,
2009-07-27, 01:01:04,VALID,1001.95,VALID,0,VALID,86.7633,VALID,0,VALID,26.3693,VALID,330,VALID,0.246875,
2009-07-27, 01:02:04,VALID,1001.91,VALID,0,VALID,86.7709,VALID,0,VALID,26.3498,VALID,331,VALID,0.3125,
2009-07-27, 01:03:04,VALID,1001.91,VALID,0,VALID,86.8319,VALID,0,VALID,26.3303,VALID,339,VALID,0.188672,
2009-07-27, 01:04:04,VALID,1001.89,VALID,0,VALID,86.8701,VALID,0,VALID,26.2913,VALID,281,VALID,0.584375,
2009-07-27, 01:05:04,VALID,1001.91,VALID,0,VALID,86.9616,VALID,0,VALID,26.3128,VALID,281,VALID,0.180469,
2009-07-27, 01:06:04,VALID,1001.89,VALID,0,VALID,87.0455,VALID,0,VALID,26.3108,VALID,305,VALID,0.631641,
2009-07-27, 01:07:04,VALID,1001.87,VALID,0,VALID,86.9845,VALID,0,VALID,26.3303,VALID,307,VALID,1.0207,
2009-07-27, 01:08:04,VALID,1001.84,VALID,0,VALID,87.1676,VALID,0,VALID,26.4277,VALID,282,VALID,0.891797,
2009-07-27, 01:09:04,VALID,1001.85,VALID,0,VALID,87.16,VALID,0,VALID,26.5271,VALID,268,VALID,1.27539,
2009-07-27, 01:10:04,VALID,1001.83,VALID,0,VALID,87.1447,VALID,0,VALID,26.642,VALID,186,VALID,0.630078,
2009-07-27, 01:11:04,VALID,1001.86,VALID,0,VALID,86.8777,VALID,0,VALID,26.7804,VALID,124,VALID,0.603906,
2009-07-27, 01:12:04,VALID,1001.88,VALID,0,VALID,86.7327,VALID,0,VALID,26.8757,VALID,238,VALID,0.482812,
2009-07-27, 01:13:04,VALID,1001.9,VALID,0,VALID,85.3138,VALID,0,VALID,26.9147,VALID,310,VALID,0.908594,
2009-07-27, 01:14:04,VALID,1001.93,VALID,0,VALID,85.2756,VALID,0,VALID,26.9167,VALID,332,VALID,0.6875,
2009-07-27, 01:15:04,VALID,1001.9,VALID,0,VALID,86.0767,VALID,0,VALID,26.9147,VALID,272,VALID,1.34023,
2009-07-27, 01:16:04,VALID,1001.93,VALID,0,VALID,85.947,VALID,0,VALID,26.9732,VALID,279,VALID,0.619531,
2009-07-27, 01:17:04,VALID,1001.95,VALID,0,VALID,85.9088,VALID,0,VALID,27.0336,VALID,288,VALID,1.21523,
2009-07-27, 01:18:04,VALID,1001.96,VALID,0,VALID,85.6876,VALID,0,VALID,27.0706,VALID,270,VALID,0.151562,
2009-07-27, 01:19:04,VALID,1001.97,VALID,0,VALID,85.2756,VALID,0,VALID,27.1095,VALID,288,VALID,2.00352,
2009-07-27, 01:20:04,VALID,1001.98,VALID,0,VALID,84.261,VALID,0,VALID,27.127,VALID,322,VALID,0.7,
2009-07-27, 01:21:04,VALID,1001.99,VALID,0,VALID,83.9253,VALID,0.100563,VALID,27.0706,VALID,306,VALID,1.10781,
2009-07-27, 01:22:04,VALID,1001.99,VALID,0,VALID,84.3602,VALID,0,VALID,26.9926,VALID,344,VALID,0.763281,
2009-07-27, 01:23:04,VALID,1001.99,VALID,0,VALID,84.6729,VALID,0,VALID,26.8778,VALID,338,VALID,0.305469,
2009-07-27, 01:24:04,VALID,1002.03,VALID,0,VALID,84.8866,VALID,0,VALID,26.7004,VALID,331,VALID,0.708203,
2009-07-27, 01:25:04,VALID,1002.04,VALID,0,VALID,85.8478,VALID,0,VALID,26.5661,VALID,278,VALID,1.10391,
2009-07-27, 01:26:04,VALID,1002.02,VALID,0,VALID,86.6183,VALID,0,VALID,26.4082,VALID,287,VALID,0.923828,
2009-07-27, 01:27:04,VALID,1002.03,VALID,0,VALID,87.4956,VALID,0,VALID,26.3128,VALID,296,VALID,1.29297,
2009-07-27, 01:28:04,VALID,1002,VALID,0,VALID,88.1441,VALID,0,VALID,26.2134,VALID,283,VALID,0.798437,
2009-07-27, 01:29:04,VALID,1001.99,VALID,0,VALID,88.9222,VALID,0,VALID,26.1355,VALID,334,VALID,1.39844,
2009-07-27, 01:30:04,VALID,1001.94,VALID,0,VALID,89.6393,VALID,0,VALID,26.157,VALID,302,VALID,1.45195,
2009-07-27, 01:31:04,VALID,1001.97,VALID,0,VALID,89.8148,VALID,0,VALID,26.1745,VALID,320,VALID,1.52617,
2009-07-27, 01:32:04,VALID,1001.93,VALID,0,VALID,89.9903,VALID,0,VALID,26.2154,VALID,270,VALID,1.03047,
2009-07-27, 01:33:04,VALID,1001.94,VALID,0,VALID,90.1123,VALID,0,VALID,26.2544,VALID,300,VALID,0.782031,
2009-07-27, 01:34:04,VALID,1001.99,VALID,0,VALID,90.12,VALID,0,VALID,26.2933,VALID,294,VALID,0.995313,
2009-07-27, 01:35:04,VALID,1001.97,VALID,0,VALID,90.0742,VALID,0,VALID,26.3128,VALID,319,VALID,1.09883,
2009-07-27, 01:36:04,VALID,1002,VALID,0.5,VALID,89.9521,VALID,0,VALID,26.3128,VALID,282,VALID,1.7875,
2009-07-27, 01:37:04,VALID,1001.98,VALID,0,VALID,89.8377,VALID,0,VALID,26.3128,VALID,264,VALID,0.6125,
2009-07-27, 01:38:04,VALID,1001.94,VALID,0,VALID,89.8224,VALID,0,VALID,26.3128,VALID,310,VALID,0.817578,
2009-07-27, 01:39:04,VALID,1001.97,VALID,0,VALID,89.7461,VALID,0,VALID,26.2524,VALID,300,VALID,0.980859,
2009-07-27, 01:40:04,VALID,1001.95,VALID,0,VALID,89.8987,VALID,0,VALID,26.2739,VALID,322,VALID,0.791016,
2009-07-27, 01:41:04,VALID,1001.97,VALID,0,VALID,89.914,VALID,0,VALID,26.2524,VALID,322,VALID,0.488281,
2009-07-27, 01:42:04,VALID,1001.98,VALID,0,VALID,90.1276,VALID,0,VALID,26.2544,VALID,315,VALID,0.457812,
2009-07-27, 01:43:04,VALID,1001.99,VALID,0,VALID,90.3641,VALID,0,VALID,26.2134,VALID,342,VALID,0.598437,
2009-07-27, 01:44:04,VALID,1002.01,VALID,0,VALID,90.6464,VALID,0,VALID,26.1765,VALID,343,VALID,0.280859,
2009-07-27, 01:45:04,VALID,1001.99,VALID,0,VALID,90.9439,VALID,0,VALID,26.116,VALID,343,VALID,0.510938,
2009-07-27, 01:46:04,VALID,1002.02,VALID,0,VALID,91.2796,VALID,0,VALID,26.0985,VALID,333,VALID,0.378516,
2009-07-27, 01:47:04,VALID,1001.99,VALID,0,VALID,91.5161,VALID,0,VALID,26.0576,VALID,299,VALID,0.494141,
2009-07-27, 01:48:04,VALID,1002.02,VALID,0,VALID,91.6305,VALID,0,VALID,26.0401,VALID,302,VALID,0.361328,
2009-07-27, 01:49:04,VALID,1002,VALID,0,VALID,91.8136,VALID,0,VALID,26.0381,VALID,305,VALID,0.336328,
2009-07-27, 01:50:04,VALID,1002.04,VALID,0,VALID,91.8899,VALID,0,VALID,26.0187,VALID,230,VALID,0.488672,
2009-07-27, 01:51:05,VALID,1002.01,VALID,0,VALID,91.8288,VALID,0,VALID,26.0401,VALID,306,VALID,0.742969,
2009-07-27, 01:52:05,VALID,1002.02,VALID,0,VALID,91.7144,VALID,0,VALID,26.0187,VALID,310,VALID,0.4625,
2009-07-27, 01:53:05,VALID,1002.01,VALID,0,VALID,91.4398,VALID,0,VALID,26.0576,VALID,263,VALID,0.555859,
2009-07-27, 01:54:05,VALID,1002.04,VALID,0,VALID,91.2643,VALID,0,VALID,26.0966,VALID,308,VALID,0.896094,
2009-07-27, 01:55:05,VALID,1002.07,VALID,0,VALID,90.6158,VALID,0,VALID,26.1375,VALID,216,VALID,0.619141,
2009-07-27, 01:56:05,VALID,1002.07,VALID,0,VALID,90.3031,VALID,0,VALID,26.155,VALID,268,VALID,1.41758,
2009-07-27, 01:57:05,VALID,1002.05,VALID,0,VALID,89.9521,VALID,0,VALID,26.1745,VALID,225,VALID,1.55352,
2009-07-27, 01:58:05,VALID,1002.05,VALID,0.5,VALID,89.7385,VALID,0.100563,VALID,26.2329,VALID,280,VALID,0.882813,
2009-07-27, 01:59:05,VALID,1002.04,VALID,0,VALID,89.8377,VALID,0,VALID,26.2739,VALID,282,VALID,0.539453,
2009-07-27, 02:00:05,VALID,1001.98,VALID,0,VALID,89.8301,VALID,0,VALID,26.2524,VALID,202,VALID,0.389062,
2009-07-27, 02:01:05,VALID,1001.98,VALID,0,VALID,89.6927,VALID,0,VALID,26.2134,VALID,155,VALID,0.353516,
2009-07-27, 02:02:05,VALID,1001.98,VALID,0,VALID,89.5478,VALID,0,VALID,26.2134,VALID,138,VALID,0.616797,
2009-07-27, 02:03:05,VALID,1001.96,VALID,0,VALID,89.5173,VALID,0,VALID,26.2329,VALID,305,VALID,1.26992,
2009-07-27, 02:04:05,VALID,1002,VALID,0,VALID,89.3876,VALID,0,VALID,26.2933,VALID,183,VALID,0.917578,
2009-07-27, 02:05:05,VALID,1002.01,VALID,0,VALID,89.0824,VALID,0,VALID,26.2933,VALID,285,VALID,1.0332,
2009-07-27, 02:06:05,VALID,1002,VALID,0,VALID,89.1435,VALID,0,VALID,26.2913,VALID,225,VALID,0.902344,
2009-07-27, 02:07:05,VALID,1001.99,VALID,0,VALID,89.0138,VALID,0,VALID,26.3128,VALID,328,VALID,0.618359,
2009-07-27, 02:08:05,VALID,1002.01,VALID,0,VALID,88.8765,VALID,0,VALID,26.3108,VALID,285,VALID,1.40664,
2009-07-27, 02:09:05,VALID,1001.99,VALID,0,VALID,88.7315,VALID,0.100563,VALID,26.3518,VALID,225,VALID,0.639453,
2009-07-27, 02:10:05,VALID,1001.99,VALID,0,VALID,88.4645,VALID,0,VALID,26.3498,VALID,311,VALID,1.57578,
2009-07-27, 02:11:05,VALID,1002,VALID,0,VALID,88.5179,VALID,0,VALID,26.4102,VALID,291,VALID,1.61563,
2009-07-27, 02:12:05,VALID,1001.97,VALID,0,VALID,88.6323,VALID,0,VALID,26.3887,VALID,236,VALID,0.843359,
2009-07-27, 02:13:05,VALID,1001.93,VALID,0,VALID,88.5713,VALID,0,VALID,26.3907,VALID,291,VALID,1.22227,
2009-07-27, 02:14:05,VALID,1001.95,VALID,0,VALID,88.7773,VALID,0,VALID,26.3303,VALID,299,VALID,1.20078,
2009-07-27, 02:15:05,VALID,1001.92,VALID,0,VALID,88.8612,VALID,0.100563,VALID,26.3693,VALID,277,VALID,1.03242,
2009-07-27, 02:16:05,VALID,1001.94,VALID,0,VALID,88.8536,VALID,0,VALID,26.3498,VALID,287,VALID,1.17383,
2009-07-27, 02:17:05,VALID,1001.94,VALID,0,VALID,88.8917,VALID,0,VALID,26.3713,VALID,314,VALID,0.810547,
2009-07-27, 02:18:05,VALID,1001.92,VALID,0,VALID,88.8078,VALID,0,VALID,26.3713,VALID,329,VALID,1.17578,
2009-07-27, 02:19:05,VALID,1001.89,VALID,0,VALID,88.8993,VALID,0.100563,VALID,26.3518,VALID,282,VALID,1.37305,
2009-07-27, 02:20:05,VALID,1001.91,VALID,0,VALID,88.8917,VALID,0,VALID,26.3693,VALID,339,VALID,0.713281,
2009-07-27, 02:21:05,VALID,1001.92,VALID,0,VALID,89.2045,VALID,0,VALID,26.3713,VALID,293,VALID,0.55625,
2009-07-27, 02:22:05,VALID,1001.88,VALID,0,VALID,89.4105,VALID,0,VALID,26.2913,VALID,272,VALID,1.49102,
2009-07-27, 02:23:05,VALID,1001.84,VALID,0,VALID,89.7461,VALID,0,VALID,26.2933,VALID,227,VALID,0.215625,
2009-07-27, 02:24:05,VALID,1001.83,VALID,0,VALID,89.5325,VALID,0,VALID,26.2524,VALID,201,VALID,0.855859,
2009-07-27, 02:25:05,VALID,1001.83,VALID,0,VALID,89.7767,VALID,0,VALID,26.2739,VALID,300,VALID,0.498437,
2009-07-27, 02:26:05,VALID,1001.83,VALID,0,VALID,89.8072,VALID,0,VALID,26.2739,VALID,281,VALID,0.750391,
2009-07-27, 02:27:05,VALID,1001.8,VALID,0,VALID,89.7538,VALID,0,VALID,26.2544,VALID,220,VALID,1.1207,
2009-07-27, 02:28:05,VALID,1001.82,VALID,0,VALID,89.8072,VALID,0,VALID,26.2739,VALID,242,VALID,0.319141,
2009-07-27, 02:29:05,VALID,1001.82,VALID,0,VALID,89.6012,VALID,0,VALID,26.2544,VALID,259,VALID,0.697656,
2009-07-27, 02:30:05,VALID,1001.79,VALID,0,VALID,89.4715,VALID,0,VALID,26.2739,VALID,266,VALID,0.857422,
2009-07-27, 02:31:05,VALID,1001.82,VALID,0,VALID,89.4715,VALID,0,VALID,26.2739,VALID,254,VALID,0.673047,
2009-07-27, 02:32:05,VALID,1001.82,VALID,0,VALID,89.1892,VALID,0,VALID,26.2524,VALID,217,VALID,0.732031,
2009-07-27, 02:33:05,VALID,1001.84,VALID,0,VALID,89.0138,VALID,0,VALID,26.2719,VALID,253,VALID,0.455859,
2009-07-27, 02:34:05,VALID,1001.84,VALID,0,VALID,88.8841,VALID,0,VALID,26.2933,VALID,270,VALID,1.04492,
2009-07-27, 02:35:05,VALID,1001.85,VALID,0,VALID,89.1892,VALID,0,VALID,26.2719,VALID,287,VALID,0.748828,
2009-07-27, 02:36:05,VALID,1001.81,VALID,0,VALID,89.4944,VALID,0,VALID,26.2739,VALID,264,VALID,0.196094,
2009-07-27, 02:37:05,VALID,1001.8,VALID,0.5,VALID,89.6622,VALID,0,VALID,26.2154,VALID,273,VALID,0.935547,
2009-07-27, 02:38:05,VALID,1001.8,VALID,0,VALID,89.9292,VALID,0,VALID,26.155,VALID,173,VALID,0.335938,
2009-07-27, 02:39:05,VALID,1001.83,VALID,0,VALID,90.1963,VALID,0,VALID,26.116,VALID,185,VALID,0.527344,
2009-07-27, 02:40:05,VALID,1001.86,VALID,0,VALID,90.242,VALID,0,VALID,26.0576,VALID,231,VALID,0.693359,
2009-07-27, 02:41:05,VALID,1001.85,VALID,0,VALID,90.3565,VALID,0,VALID,26.0596,VALID,247,VALID,1.38242,
2009-07-27, 02:42:05,VALID,1001.86,VALID,0,VALID,90.509,VALID,0,VALID,26.0791,VALID,313,VALID,1.42891,
2009-07-27, 02:43:05,VALID,1001.94,VALID,0,VALID,90.5701,VALID,0,VALID,26.0791,VALID,278,VALID,1.45156,
2009-07-27, 02:44:05,VALID,1001.97,VALID,0.5,VALID,90.7608,VALID,0,VALID,26.0596,VALID,307,VALID,1.91836,
2009-07-27, 02:45:05,VALID,1002,VALID,0.5,VALID,91.1193,VALID,0,VALID,26.0206,VALID,281,VALID,0.957812,
2009-07-27, 02:46:05,VALID,1001.91,VALID,1,VALID,91.4321,VALID,0,VALID,25.8843,VALID,348,VALID,2.03672,
2009-07-27, 02:47:05,VALID,1001.91,VALID,0.5,VALID,91.8441,VALID,0,VALID,25.6876,VALID,269,VALID,1.4918,
2009-07-27, 02:48:05,VALID,1001.95,VALID,1,VALID,92.3934,VALID,0,VALID,25.5513,VALID,303,VALID,1.03359,
2009-07-27, 02:49:05,VALID,1001.97,VALID,0,VALID,92.9121,VALID,0,VALID,25.4734,VALID,354,VALID,0.785937,
2009-07-27, 02:50:05,VALID,1001.94,VALID,0.5,VALID,93.2707,VALID,0,VALID,25.4344,VALID,305,VALID,0.424609,
2009-07-27, 02:51:05,VALID,1001.95,VALID,0.5,VALID,93.5682,VALID,0,VALID,25.3955,VALID,308,VALID,1.0168,
2009-07-27, 02:52:05,VALID,1001.97,VALID,0.5,VALID,93.7208,VALID,0,VALID,25.3955,VALID,348,VALID,0.928516,
2009-07-27, 02:53:05,VALID,1001.96,VALID,0.5,VALID,93.7666,VALID,0,VALID,25.3584,VALID,349,VALID,0.406641,
2009-07-27, 02:54:05,VALID,1001.97,VALID,0,VALID,93.881,VALID,0,VALID,25.2981,VALID,349,VALID,0.168359,
2009-07-27, 02:55:05,VALID,1001.99,VALID,0.5,VALID,93.9878,VALID,0,VALID,25.3195,VALID,349,VALID,0.0332031,
2009-07-27, 02:56:05,VALID,1002,VALID,0,VALID,94.087,VALID,0,VALID,25.2806,VALID,349,VALID,0.237109,
2009-07-27, 02:57:05,VALID,1002,VALID,0,VALID,94.1785,VALID,0,VALID,25.2806,VALID,3,VALID,0.914063,
2009-07-27, 02:58:05,VALID,1001.99,VALID,0,VALID,94.2396,VALID,0,VALID,25.263,VALID,22,VALID,0.859375,
2009-07-27, 02:59:05,VALID,1002.04,VALID,0,VALID,94.2701,VALID,0,VALID,25.2027,VALID,339,VALID,0.261719,
2009-07-27, 03:00:05,VALID,1002.01,VALID,0,VALID,94.3158,VALID,0,VALID,25.1832,VALID,339,VALID,0,
2009-07-27, 03:01:05,VALID,1002.01,VALID,0,VALID,94.3769,VALID,0,VALID,25.2027,VALID,339,VALID,0,
2009-07-27, 03:02:05,VALID,1002.01,VALID,0,VALID,94.4227,VALID,0,VALID,25.1637,VALID,323,VALID,0.401172,
2009-07-27, 03:03:05,VALID,1001.98,VALID,0,VALID,94.415,VALID,0,VALID,25.1248,VALID,298,VALID,1.12461,
2009-07-27, 03:04:05,VALID,1001.95,VALID,0,VALID,94.4455,VALID,0,VALID,25.1053,VALID,307,VALID,0.594141,
2009-07-27, 03:05:05,VALID,1001.93,VALID,0,VALID,94.4837,VALID,0,VALID,25.1053,VALID,272,VALID,0.509766,
2009-07-27, 03:06:05,VALID,1001.93,VALID,0,VALID,94.5066,VALID,0,VALID,25.1053,VALID,312,VALID,0.583203,
2009-07-27, 03:07:05,VALID,1001.89,VALID,0,VALID,94.5447,VALID,0,VALID,25.0858,VALID,284,VALID,0.740625,
2009-07-27, 03:08:05,VALID,1001.89,VALID,0,VALID,94.5523,VALID,0,VALID,25.0469,VALID,288,VALID,0.765234,
2009-07-27, 03:09:05,VALID,1001.86,VALID,0,VALID,94.5752,VALID,0,VALID,25.0255,VALID,287,VALID,1.35938,
2009-07-27, 03:10:05,VALID,1001.86,VALID,0,VALID,94.56,VALID,0,VALID,25.0079,VALID,288,VALID,0.797266,
2009-07-27, 03:11:05,VALID,1001.82,VALID,0,VALID,94.5981,VALID,0,VALID,25.0079,VALID,318,VALID,0.119531,
2009-07-27, 03:12:05,VALID,1001.8,VALID,0,VALID,94.6134,VALID,0,VALID,25.0079,VALID,314,VALID,0.173438,
2009-07-27, 03:13:05,VALID,1001.77,VALID,0,VALID,94.6057,VALID,0,VALID,25.0098,VALID,320,VALID,0.288672,
2009-07-27, 03:14:05,VALID,1001.75,VALID,0,VALID,94.6363,VALID,0,VALID,24.969,VALID,341,VALID,0.535547,
2009-07-27, 03:15:05,VALID,1001.72,VALID,0,VALID,94.6439,VALID,0,VALID,24.93,VALID,306,VALID,0.0753906,
2009-07-27, 03:16:05,VALID,1001.69,VALID,0,VALID,94.6668,VALID,0,VALID,24.9087,VALID,306,VALID,0.0699219,
2009-07-27, 03:17:05,VALID,1001.66,VALID,0,VALID,94.6668,VALID,0,VALID,24.8892,VALID,277,VALID,0.307813,
2009-07-27, 03:18:05,VALID,1001.65,VALID,0,VALID,94.6973,VALID,0,VALID,24.8697,VALID,270,VALID,0.00898437,
2009-07-27, 03:19:05,VALID,1001.62,VALID,0,VALID,94.7125,VALID,0,VALID,24.8911,VALID,270,VALID,0.178516,
2009-07-27, 03:20:05,VALID,1001.61,VALID,0,VALID,94.7125,VALID,0,VALID,24.8503,VALID,270,VALID,0.640625,
2009-07-27, 03:21:05,VALID,1001.57,VALID,0,VALID,94.7431,VALID,0,VALID,24.8716,VALID,5,VALID,0.200391,
2009-07-27, 03:22:05,VALID,1001.55,VALID,0,VALID,94.7583,VALID,0,VALID,24.8113,VALID,341,VALID,0.266406,
2009-07-27, 03:23:05,VALID,1001.52,VALID,0,VALID,94.7736,VALID,0,VALID,24.8327,VALID,347,VALID,0.515625,
2009-07-27, 03:24:05,VALID,1001.5,VALID,0,VALID,94.7888,VALID,0,VALID,24.8132,VALID,360,VALID,0.640625,
2009-07-27, 03:25:05,VALID,1001.51,VALID,0,VALID,94.7736,VALID,0.100563,VALID,24.7724,VALID,343,VALID,0.595312,
2009-07-27, 03:26:05,VALID,1001.51,VALID,0,VALID,94.7965,VALID,0,VALID,24.7743,VALID,341,VALID,0.294141,
2009-07-27, 03:27:05,VALID,1001.47,VALID,0,VALID,94.8117,VALID,0,VALID,24.7937,VALID,359,VALID,0.415234,
2009-07-27, 03:28:05,VALID,1001.46,VALID,0,VALID,94.8499,VALID,0,VALID,24.7937,VALID,331,VALID,0.151953,
2009-07-27, 03:29:05,VALID,1001.46,VALID,0,VALID,94.8728,VALID,0,VALID,24.7743,VALID,349,VALID,1.03867,
2009-07-27, 03:30:05,VALID,1001.47,VALID,0,VALID,94.8575,VALID,0.100563,VALID,24.7529,VALID,355,VALID,0.721875,
2009-07-27, 03:31:05,VALID,1001.45,VALID,0,VALID,94.8956,VALID,0,VALID,24.7724,VALID,3,VALID,0.755078,
2009-07-27, 03:32:05,VALID,1001.45,VALID,0,VALID,94.9185,VALID,0,VALID,24.7529,VALID,294,VALID,0.483984,
2009-07-27, 03:33:05,VALID,1001.45,VALID,0,VALID,94.9109,VALID,0,VALID,24.7529,VALID,265,VALID,0.237109,
2009-07-27, 03:34:05,VALID,1001.43,VALID,0,VALID,94.9109,VALID,0,VALID,24.7743,VALID,329,VALID,0.638672,
2009-07-27, 03:35:05,VALID,1001.43,VALID,0,VALID,94.9338,VALID,0,VALID,24.7335,VALID,326,VALID,0.564844,
2009-07-27, 03:36:05,VALID,1001.43,VALID,0,VALID,94.9567,VALID,0,VALID,24.7353,VALID,350,VALID,0.753516,
2009-07-27, 03:37:05,VALID,1001.45,VALID,0,VALID,94.9414,VALID,0,VALID,24.7548,VALID,348,VALID,0.158594,
2009-07-27, 03:38:05,VALID,1001.44,VALID,0,VALID,94.949,VALID,0,VALID,24.7353,VALID,340,VALID,0.405469,
2009-07-27, 03:39:05,VALID,1001.43,VALID,0,VALID,94.949,VALID,0,VALID,24.7159,VALID,340,VALID,0.241797,
2009-07-27, 03:40:05,VALID,1001.44,VALID,0,VALID,94.9567,VALID,0,VALID,24.675,VALID,340,VALID,0.442969,
2009-07-27, 03:41:05,VALID,1001.41,VALID,0,VALID,94.949,VALID,0,VALID,24.675,VALID,300,VALID,0.0175781,
2009-07-27, 03:42:05,VALID,1001.44,VALID,0,VALID,94.9643,VALID,0,VALID,24.6964,VALID,300,VALID,0.00507812,
2009-07-27, 03:43:05,VALID,1001.41,VALID,0,VALID,94.9719,VALID,0,VALID,24.675,VALID,351,VALID,0.523828,
2009-07-27, 03:44:05,VALID,1001.42,VALID,0,VALID,94.9948,VALID,0,VALID,24.6556,VALID,355,VALID,0.636719,
2009-07-27, 03:45:05,VALID,1001.46,VALID,0,VALID,94.9948,VALID,0,VALID,24.6556,VALID,340,VALID,0.85625,